This is the latest recevied weather packets stored in our database for station/object KY0TEQ-13. If no packets are shown the sender has not sent any weather packets the latest 10 day(s).
| Time | Temp. | Humidity | Pressure | Rain* | Wind** | Luminosity | Snow |
|---|---|---|---|---|---|---|---|
| 1777951567 | 10.56° C | 32% | 1297.1 hPa | 0 mm | - | 0 W/m² | - |
| 1777951264 | 10.56° C | 31% | 1297.1 hPa | 0 mm | - | 0 W/m² | - |
| 1777950961 | 10.56° C | 32% | 1297.1 hPa | 0 mm | - | 0 W/m² | - |
| 1777950656 | 11.11° C | 33% | 1297 hPa | 0 mm | - | 0 W/m² | - |
| 1777950354 | 10.56° C | 31% | 1296.8 hPa | 0 mm | - | 0 W/m² | - |
| 1777950049 | 10° C | 35% | 1297 hPa | 0 mm | - | 0 W/m² | - |
| 1777949745 | 10.56° C | 35% | 1296.8 hPa | 0 mm | - | 0 W/m² | - |
| 1777949445 | 10.56° C | 34% | 1296.8 hPa | 0 mm | - | 0 W/m² | - |
| 1777949142 | 11.67° C | 31% | 1296.8 hPa | 0 mm | - | 0 W/m² | - |
| 1777948838 | 12.22° C | 29% | 1296.7 hPa | 0 mm | - | 0 W/m² | - |
| 1777948535 | 12.22° C | 28% | 1297 hPa | 0 mm | - | 0 W/m² | - |
| 1777948233 | 12.22° C | 28% | 1296.7 hPa | 0 mm | - | 0 W/m² | - |
| 1777947930 | 12.22° C | 30% | 1297 hPa | 0 mm | - | 0 W/m² | - |
| 1777947627 | 13.33° C | 26% | 1296.8 hPa | 0 mm | - | 0 W/m² | - |
| 1777947324 | 13.33° C | 26% | 1296.7 hPa | 0 mm | - | 0 W/m² | - |
| 1777947021 | 13.33° C | 26% | 1296.6 hPa | 0 mm | - | 1 W/m² | - |
| 1777946720 | 13.33° C | 26% | 1296.8 hPa | 0 mm | - | 1 W/m² | - |
| 1777946418 | 13.33° C | 26% | 1296.5 hPa | 0 mm | - | 2 W/m² | - |
| 1777946115 | 13.33° C | 28% | 1296.8 hPa | 0 mm | - | 4 W/m² | - |
| 1777945812 | 13.89° C | 27% | 1296.8 hPa | 0 mm | - | 5 W/m² | - |
| 1777945509 | 13.89° C | 26% | 1296.8 hPa | 0 mm | - | 9 W/m² | - |
| 1777945206 | 13.89° C | 25% | 1296.6 hPa | 0 mm | - | 11 W/m² | - |
| 1777944903 | 14.44° C | 25% | 1296.8 hPa | 0 mm | - | 14 W/m² | - |
| 1777944600 | 14.44° C | 23% | 1296.6 hPa | 0 mm | - | 20 W/m² | - |
| 1777944298 | 15° C | 23% | 1296.6 hPa | 0 mm | - | 25 W/m² | - |
* Rain latest hour (hover to see other rain measurements)
** Current wind speed in m/s (hover to see current wind gust speed)